Regional Weather Roundup
Issued by NWS

Home | Current Version | Previous Version | Text Only | Print | Product List | Glossary On
Versions: 1 2 3 4 5 6 7 8 9 10 11 12 13 14 15 16 17 18 19 20 21 22 23 24 25 26 27 28 29 30 31 32 33 34 35 36 37 38 39 40 41 42 43 44 45 46 47 48 49 50
000
ASUS44 KFWD 181115
RWRTX
NORTH TEXAS HOURLY WEATHER ROUNDUP
NATIONAL WEATHER SERVICE FORT WORTH TX
600 AM CDT WED OCT 18 2017

NOTE: "FAIR" INDICATES FEW OR NO CLOUDS BELOW 12,000 FEET WITH NO
SIGNIFICANT WEATHER AND/OR OBSTRUCTIONS TO VISIBILITY.

TXZ118-119-181200-
DALLAS/FORT WORTH METROPLEX

CITY           SKY/WX    TMP DP  RH WIND       PRES   REMARKS
DFW AIRPORT    CLEAR     51  43  74 SE5       30.12R
DALLAS LOVE    CLEAR     55  44  66 SE7       30.14R
FTW MEACHAM    CLEAR     53  44  71 S8        30.13R
DAL-EXECUTIVE  CLEAR     50  43  77 S5        30.14R
FTW-ALLIANCE   CLEAR     51  43  74 CALM      30.12S
FTW-NAS-JRB    CLEAR     55  43  63 S5        30.13S
FTW-SPINKS     CLEAR     54  43  67 S8        30.15R
ARLINGTON      CLEAR     45  42  89 CALM      30.14R
GRAND PRAIRIE  CLEAR     53  43  67 CALM      30.15R
ADDISON        CLEAR     55  45  67 SE5       30.14F
MESQUITE       CLEAR     46  42  85 CALM      30.16R
LANCASTER      CLEAR     46  42  85 CALM      30.16R
$$

TXZ091>094-102>105-117-120-121-131>134-181200-
NORTH CENTRAL TEXAS

CITY           SKY/WX    TMP DP  RH WIND       PRES   REMARKS
SHRMAN/DENISON CLEAR     53  43  68 SE9       30.14R
GAINESVILLE    CLEAR     50  43  77 S7        30.14S
BOWIE          CLEAR     47  42  85 CALM      30.11S
BRIDGEPORT     CLEAR     43  43 100 CALM      30.13S
DECATUR        CLEAR     55  43  63 SE7       30.11R
DENTON         CLEAR     48  43  82 SE6       30.13R
MCKINNEY       CLEAR     46  42  86 CALM      30.15R
BONHAM         CLEAR     48  42  81 SE5       30.16R
GREENVILLE     CLEAR     46  43  87 CALM      30.16S
ROCKWALL       CLEAR     53  46  75 S6        30.15S
TERRELL        CLEAR     49  42  77 CALM      30.16R
WAXAHACHIE     CLEAR     49  42  76 SE3       30.16R
CLEBURNE       CLEAR     52  45  76 S7        30.15S
GRANBURY       CLEAR     51  44  75 SE3       30.14R
$$

TXZ083>090-098>101-113>116-127>130-139>142-154-155-181200-
WESTERN NORTH TEXAS

CITY           SKY/WX    TMP DP  RH WIND       PRES   REMARKS
WICHITA FALLS  CLEAR     47  42  83 SE8       30.08R
WF-KICKAPOO    CLEAR     50  45  81 SE5       30.10S
VERNON         CLEAR     50  41  70 S5        30.06S
ABILENE        CLEAR     59  41  51 S13       30.08S
ABILENE-DYESS  CLEAR     61  43  51 S8        30.07S
GRAHAM           N/A     52  44  74 CALM      30.08S
BRECKENRIDGE   CLEAR     56  43  61 S8        30.09S
CISCO          CLEAR     54  43  66 S12       30.10S
EASTLAND       CLEAR     40  39  93 CALM      30.11R
RANGER         CLEAR     53  44  72 S7        30.10S
MINERAL WELLS  CLEAR     49  42  77 SE13      30.10S
STEPHENVILLE   CLEAR     47  42  80 S3        30.15R
COMANCHE       CLEAR     52  45  75 MISG      30.13R
BROWNWOOD      CLEAR     39  37  93 E3        30.13S
COLEMAN        CLEAR     49  41  73 S3        30.12R
$$

TXZ143>147-156>162-174-175-181200-
CENTRAL TEXAS

CITY           SKY/WX    TMP DP  RH WIND       PRES   REMARKS
WACO           CLEAR     46  41  82 E3        30.15R
WACO-MCGREGOR  CLEAR     48  41  76 CALM      30.15R
HILLSBORO      CLEAR     52  43  70 SE7       30.14S
CORSICANA      CLEAR     50  47  89 CALM      30.16S
MEXIA          CLEAR     50  43  77 CALM      30.15R
HEARNE         CLEAR     42  42 100 CALM      30.17S
CAMERON        CLEAR     47  45  92 CALM      30.16R
TEMPLE         CLEAR     47  42  83 S5        30.15S
KILLEEN        CLEAR     54  45  71 S6        30.14R
KILLEEN-SKYLRK CLEAR     48  44  86 CALM      30.15R
FORT HOOD      CLEAR     50  44  79 CALM      30.11R
GATESVILLE     CLEAR     48  41  76 CALM      30.15S
HAMILTON       CLEAR     50  44  78 S3        30.14S
LAMPASAS       CLEAR     50  45  81 CALM      30.12F
$$

TXZ095>097-106>112-122>126-135>138-148>153-164>167-181200-
EAST TEXAS

CITY           SKY/WX    TMP DP  RH WIND       PRES   REMARKS
PARIS          CLEAR     46  42  86 SE6       30.18R
SULPHUR SPRNGS CLEAR     49  43  78 SE6       30.19R
MOUNT PLEASANT CLEAR     42  42  99 CALM      30.20R
GILMER         CLEAR     43  41  94 CALM      30.18S
MINEOLA        PTCLDY    41  39  93 CALM      30.18R
TYLER          CLEAR     49  44  83 CALM      30.17R
LONGVIEW       CLEAR     44  43  96 CALM      30.17S
MARSHALL       CLEAR     42  40  93 CALM      30.20R
ATHENS         CLEAR     41  39  93 CALM      30.15F
PALESTINE        N/A     45  44  95 CALM      30.18R
JACKSONVILLE   PTCLDY    52  45  76 CALM      30.19R
HENDERSON      CLEAR     40  39  97 CALM      30.18S
CENTER           N/A     46  45  95 CALM      30.18S
NACOGDOCHES    CLEAR     41  40  96 CALM      30.17S
LUFKIN         CLEAR     46  45  96 CALM      30.16S
$$

SUPPLEMENTAL OBSERVATIONS (NWS FORT WORTH AREA)

CITY           SKY/WX    TMP DP  RH WIND       PRES   REMARKS
DENISON DAM      N/A     52  41  66 SE5         N/A
CADDO GRASSLND   N/A     50  43  76 S3          N/A
PAT MAYSE LAKE   N/A     52  45  76 E5          N/A
GREENVILLE       N/A     48  41  76 S2          N/A
CEDAR HILL       N/A     57  39  51 S7          N/A
LBJ GRASSLAND    N/A     55  43  62 SE8         N/A
POSSUM KINGDOM   N/A     55  43  62 SE7         N/A
GRANBURY         N/A     52  43  71 SE5         N/A
COMANCHE         N/A     52  43  71 CALM        N/A
MCGREGOR         N/A     45  39  81 SW1         N/A
TEMPLE           N/A     52  43  71 S1          N/A
LAKE LIMESTONE   N/A     45  39  81 CALM        N/A
$$

SUPPLEMENTAL OBSERVATIONS (NWS NORMAN AREA)

CITY           SKY/WX    TMP DP  RH WIND       PRES   REMARKS
GOODLETT         N/A     50  37  60 S6        30.05R
ODELL            N/A     52  44  75 SE10      30.07S
CROWELL          N/A     49  39  68 S7        30.07S
KNOX CITY        N/A     48  37  66 S3        30.08S
SEYMOUR          N/A     51  42  72 S6        30.08R
MILLERS CREEK    N/A     52  41  66 S3          N/A
$$

SUPPLEMENTAL OBSERVATIONS (NWS SAN ANGELO AREA)

CITY           SKY/WX    TMP DP  RH WIND       PRES   REMARKS
WEINERT          N/A     46  40  79 S3        30.08S
HASKELL          N/A     53  41  62 S5        30.08R
THROCKMORTON     N/A     49  43  79 SE5       30.09S
STAMFORD         N/A     51  42  71 S6        30.08S
CLYDE            N/A     50  41  71 S12       30.11R
HAMBY            N/A     54  39  58 S5          N/A
$$

SUPPLEMENTAL OBSERVATIONS (NWS SHREVEPORT AREA)

CITY           SKY/WX    TMP DP  RH WIND       PRES   REMARKS
CLARKSVILLE      N/A     46  39  76 E1          N/A
TEXARKANA        N/A     37  36  93 CALM        N/A
LINDEN           N/A     43  39  87 CALM        N/A
CADDO LAKE       N/A     34  32  93 CALM        N/A
GILMER           N/A     43  39  87 CALM        N/A
HENDERSON        N/A     41  39  93 CALM        N/A
LUFKIN           N/A     45  43  93 MISG        N/A
N SABINE NF      N/A     43  41  93 MISG        N/A
S SABINE NF      N/A     46  45  93 CALM        N/A
$$

SUPPLEMENTAL OBSERVATIONS ARE A COLLECTION OF AUTOMATED INSTRUMENTS
THAT ARE MAINTAINED BY A VARIETY OF FEDERAL AND STATE AGENCIES.
CERTAIN ELEMENTS...SUCH AS HUMIDITY VALUES AND SUSTAINED WIND
SPEEDS...MAY BE APPROXIMATED.





USA.gov is the U.S. government's official web portal to all federal, state and local government web resources and services.